• în România
  • Lista ţărilor
  • Pe 7 zile
  • Temperatura apei
  • Hartă satelitară
  • Meteo pe hartă
  • Widget-uri
  • user-avatar
    Intrare

    Meteo pe oră la Fier

    Astăzi, 24 Noiembrie, Vineri

    Timp Temperatura Precipitaţii Vânt Presiune Umiditate
    00:00 +11°C° 0 mm 1 m/s 765 mmHg 63%
    01:00 +11°C° 0 mm 1 m/s 765 mmHg 63%
    02:00 +11°C° 0 mm 1 m/s 765 mmHg 62%
    03:00 +10°C° 0 mm 1 m/s 765 mmHg 62%
    04:00 +10°C° 0 mm 1 m/s 765 mmHg 62%
    05:00 +10°C° 0 mm 1 m/s 765 mmHg 62%
    06:00 +10°C° 0 mm 1 m/s 765 mmHg 62%
    07:00 +10°C° 0 mm 1 m/s 765 mmHg 63%
    08:00 +12°C° 0 mm 1 m/s 765 mmHg 59%
    09:00 +14°C° 0 mm 1 m/s 765 mmHg 55%
    10:00 +16°C° 0 mm 1 m/s 765 mmHg 51%
    11:00 +16°C° 0 mm 1 m/s 765 mmHg 52%
    12:00 +18°C° 0 mm 1 m/s 764 mmHg 52%
    13:00 +17°C° 0 mm 2 m/s 764 mmHg 53%
    14:00 +16°C° 0 mm 2 m/s 764 mmHg 59%
    15:00 +15°C° 0 mm 1 m/s 764 mmHg 65%
    16:00 +14°C° 0 mm 1 m/s 764 mmHg 71%
    17:00 +13°C° 0 mm 1 m/s 764 mmHg 74%
    18:00 +12°C° 0 mm 1 m/s 764 mmHg 77%
    19:00 +11°C° 0 mm 1 m/s 765 mmHg 80%
    20:00 +11°C° 0 mm 1 m/s 765 mmHg 80%
    21:00 +11°C° 0 mm 1 m/s 765 mmHg 79%
    22:00 +11°C° 0 mm 1 m/s 765 mmHg 79%
    23:00 +11°C° 0 mm 1 m/s 765 mmHg 78%

    Mâine, 25 Noiembrie, Sâmbătă

    Timp Temperatura Precipitaţii Vânt Presiune Umiditate
    00:00 +10°C° 0 mm 1 m/s 765 mmHg 77%
    01:00 +10°C° 0 mm 1 m/s 765 mmHg 76%
    02:00 +10°C° 0 mm 1 m/s 765 mmHg 75%
    03:00 +10°C° 0 mm 1 m/s 764 mmHg 74%
    04:00 +10°C° 0 mm 1 m/s 764 mmHg 72%
    05:00 +10°C° 0 mm 1 m/s 764 mmHg 71%
    06:00 +10°C° 0 mm 1 m/s 764 mmHg 70%
    07:00 +9°C° 0 mm 2 m/s 764 mmHg 69%
    08:00 +12°C° 0 mm 2 m/s 764 mmHg 63%
    09:00 +14°C° 0 mm 1 m/s 764 mmHg 56%
    10:00 +16°C° 0 mm 1 m/s 764 mmHg 49%
    11:00 +16°C° 0 mm 2 m/s 763 mmHg 48%
    12:00 +17°C° 0 mm 2 m/s 763 mmHg 47%
    13:00 +17°C° 0 mm 2 m/s 763 mmHg 46%
    14:00 +16°C° 0 mm 2 m/s 762 mmHg 53%
    15:00 +15°C° 0 mm 2 m/s 762 mmHg 59%
    16:00 +14°C° 0 mm 2 m/s 762 mmHg 66%
    17:00 +13°C° 0 mm 2 m/s 763 mmHg 69%
    18:00 +11°C° 0 mm 3 m/s 763 mmHg 73%
    19:00 +11°C° 0 mm 3 m/s 763 mmHg 76%
    20:00 +10°C° 0 mm 3 m/s 763 mmHg 77%
    21:00 +10°C° 0 mm 4 m/s 763 mmHg 78%
    22:00 +10°C° 0 mm 4 m/s 763 mmHg 79%
    23:00 +10°C° 0 mm 4 m/s 763 mmHg 78%

    Poimâine, 26 Noiembrie, Duminică

    Timp Temperatura Precipitaţii Vânt Presiune Umiditate
    00:00 +9°C° 0 mm 5 m/s 762 mmHg 78%
    01:00 +9°C° 0 mm 5 m/s 762 mmHg 77%
    02:00 +9°C° 0 mm 5 m/s 762 mmHg 77%
    03:00 +9°C° 0 mm 5 m/s 762 mmHg 77%
    04:00 +9°C° 0 mm 5 m/s 761 mmHg 77%
    05:00 +9°C° 0 mm 5 m/s 761 mmHg 76%
    06:00 +9°C° 0 mm 6 m/s 761 mmHg 76%
    07:00 +9°C° 0 mm 6 m/s 761 mmHg 76%
    08:00 +11°C° 0,1 mm 6 m/s 761 mmHg 72%
    09:00 +13°C° 0,1 mm 6 m/s 761 mmHg 67%
    10:00 +15°C° 0,1 mm 6 m/s 761 mmHg 63%
    11:00 +16°C° 0,1 mm 7 m/s 760 mmHg 63%
    12:00 +17°C° 0,1 mm 7 m/s 759 mmHg 62%
    13:00 +18°C° 0,1 mm 7 m/s 759 mmHg 62%
    14:00 +17°C° 0,6 mm 7 m/s 758 mmHg 67%
    15:00 +16°C° 0,6 mm 7 m/s 758 mmHg 71%
    16:00 +15°C° 0,6 mm 7 m/s 758 mmHg 76%
    17:00 +14°C° 1 mm 7 m/s 758 mmHg 79%
    18:00 +14°C° 1 mm 6 m/s 758 mmHg 82%
    19:00 +13°C° 1 mm 6 m/s 757 mmHg 85%
    20:00 +13°C° 1,4 mm 5 m/s 757 mmHg 88%
    21:00 +12°C° 1,4 mm 5 m/s 757 mmHg 91%
    22:00 +12°C° 1,4 mm 5 m/s 757 mmHg 93%
    23:00 +12°C° 0,7 mm 4 m/s 757 mmHg 92%

    27 Noiembrie, Luni

    Timp Temperatura Precipitaţii Vânt Presiune Umiditate
    00:00 +12°C° 0,7 mm 4 m/s 757 mmHg 91%
    01:00 +12°C° 0,7 mm 3 m/s 756 mmHg 90%
    02:00 +11°C° 0,2 mm 3 m/s 756 mmHg 89%
    03:00 +11°C° 0,2 mm 3 m/s 756 mmHg 88%
    04:00 +11°C° 0,2 mm 3 m/s 755 mmHg 87%
    05:00 +10°C° 0,1 mm 2 m/s 755 mmHg 86%
    06:00 +10°C° 0,1 mm 2 m/s 756 mmHg 84%
    07:00 +10°C° 0,1 mm 2 m/s 756 mmHg 83%
    08:00 +12°C° 0,1 mm 2 m/s 756 mmHg 78%
    09:00 +12°C° 0,1 mm 2 m/s 757 mmHg 72%
    10:00 +13°C° 0,1 mm 2 m/s 757 mmHg 67%
    11:00 +13°C° 0,1 mm 3 m/s 757 mmHg 65%
    12:00 +13°C° 0,1 mm 4 m/s 757 mmHg 63%
    13:00 +13°C° 0,1 mm 5 m/s 757 mmHg 62%
    14:00 +13°C° 0 mm 5 m/s 757 mmHg 65%
    15:00 +11°C° 0 mm 6 m/s 758 mmHg 69%
    16:00 +10°C° 0 mm 6 m/s 758 mmHg 72%
    17:00 +9°C° 0 mm 6 m/s 759 mmHg 74%
    18:00 +9°C° 0 mm 5 m/s 759 mmHg 76%
    19:00 +8°C° 0 mm 5 m/s 759 mmHg 78%
    20:00 +7°C° 0 mm 5 m/s 760 mmHg 78%
    21:00 +7°C° 0 mm 4 m/s 760 mmHg 78%
    22:00 +7°C° 0 mm 4 m/s 760 mmHg 78%
    23:00 +6°C° 0 mm 4 m/s 760 mmHg 78%

    28 Noiembrie, Marţi

    Timp Temperatura Precipitaţii Vânt Presiune Umiditate
    00:00 +6°C° 0 mm 4 m/s 760 mmHg 78%
    01:00 +6°C° 0 mm 4 m/s 761 mmHg 78%
    02:00 +5°C° 0 mm 4 m/s 761 mmHg 79%
    03:00 +5°C° 0 mm 3 m/s 761 mmHg 79%
    04:00 +5°C° 0 mm 3 m/s 761 mmHg 79%
    05:00 +5°C° 0 mm 3 m/s 761 mmHg 79%
    06:00 +4°C° 0 mm 3 m/s 761 mmHg 79%
    07:00 +4°C° 0 mm 3 m/s 761 mmHg 79%
    08:00 +7°C° 0 mm 3 m/s 761 mmHg 72%
    09:00 +8°C° 0 mm 3 m/s 761 mmHg 65%
    10:00 +10°C° 0 mm 3 m/s 761 mmHg 57%
    11:00 +10°C° 0 mm 3 m/s 761 mmHg 56%
    12:00 +10°C° 0 mm 4 m/s 761 mmHg 54%
    13:00 +11°C° 0 mm 4 m/s 760 mmHg 52%
    14:00 +10°C° 0 mm 4 m/s 760 mmHg 56%
    15:00 +8°C° 0 mm 4 m/s 761 mmHg 60%
    16:00 +7°C° 0 mm 4 m/s 761 mmHg 65%
    17:00 +7°C° 0 mm 3 m/s 761 mmHg 67%
    18:00 +7°C° 0 mm 3 m/s 761 mmHg 69%
    19:00 +6°C° 0 mm 2 m/s 762 mmHg 71%
    20:00 +6°C° 0 mm 2 m/s 762 mmHg 71%
    21:00 +5°C° 0 mm 2 m/s 762 mmHg 71%
    22:00 +5°C° 0 mm 2 m/s 762 mmHg 71%
    23:00 +5°C° 0 mm 2 m/s 762 mmHg 71%

    29 Noiembrie, Miercuri

    Timp Temperatura Precipitaţii Vânt Presiune Umiditate
    00:00 +5°C° 0 mm 2 m/s 762 mmHg 70%
    01:00 +5°C° 0 mm 2 m/s 762 mmHg 70%
    02:00 +5°C° 0 mm 2 m/s 762 mmHg 69%
    03:00 +5°C° 0 mm 2 m/s 762 mmHg 68%
    04:00 +5°C° 0 mm 2 m/s 762 mmHg 68%
    05:00 +5°C° 0 mm 2 m/s 762 mmHg 67%
    06:00 +5°C° 0 mm 2 m/s 762 mmHg 65%
    07:00 +5°C° 0 mm 2 m/s 763 mmHg 64%
    08:00 +7°C° 0 mm 2 m/s 763 mmHg 57%
    09:00 +8°C° 0 mm 2 m/s 763 mmHg 50%
    10:00 +10°C° 0 mm 2 m/s 763 mmHg 42%
    11:00 +12°C° 0 mm 2 m/s 763 mmHg 42%
    12:00 +12°C° 0 mm 2 m/s 762 mmHg 41%
    13:00 +13°C° 0 mm 2 m/s 762 mmHg 40%
    14:00 +12°C° 0 mm 2 m/s 762 mmHg 46%
    15:00 +10°C° 0 mm 2 m/s 762 mmHg 53%
    16:00 +9°C° 0 mm 2 m/s 762 mmHg 59%
    17:00 +8°C° 0 mm 2 m/s 763 mmHg 61%
    18:00 +8°C° 0 mm 3 m/s 763 mmHg 63%
    19:00 +7°C° 0 mm 3 m/s 763 mmHg 66%
    20:00 +6°C° 0 mm 4 m/s 763 mmHg 67%
    21:00 +5°C° 0 mm 4 m/s 763 mmHg 69%
    22:00 +5°C° 0 mm 5 m/s 763 mmHg 70%
    23:00 +5°C° 0 mm 5 m/s 763 mmHg 71%
    Arată mai mult